• In Hungary
  • List of Countries
  • For 7 days
  • Water Temperature
  • Satellite Maps
  • Weather Map
  • News
  • Weather Widgets
  • user-avatar
    Login

    Hourly Weather Zavrazhe

    Today, 26 April, Thursday

    Time Temperature Precipitation Wind Pressure Humidity
    00:00 +4°C° 0 mm 2 mps 734 mmHg 93%
    01:00 +4°C° 0 mm 2 mps 734 mmHg 94%
    02:00 +4°C° 0 mm 1 mps 733 mmHg 96%
    03:00 +4°C° 0 mm 1 mps 733 mmHg 96%
    04:00 +5°C° 0 mm 1 mps 733 mmHg 96%
    05:00 +5°C° 0 mm 1 mps 733 mmHg 96%
    06:00 +5°C° 0 mm 2 mps 732 mmHg 90%
    07:00 +7°C° 0 mm 2 mps 732 mmHg 85%
    08:00 +9°C° 0 mm 2 mps 731 mmHg 79%
    09:00 +9°C° 0.4 mm 2 mps 731 mmHg 78%
    10:00 +9°C° 0.4 mm 3 mps 731 mmHg 78%
    11:00 +9°C° 0.4 mm 3 mps 730 mmHg 77%
    12:00 +9°C° 1.2 mm 3 mps 730 mmHg 82%
    13:00 +8°C° 1.2 mm 2 mps 730 mmHg 86%
    14:00 +7°C° 1.2 mm 2 mps 730 mmHg 91%
    15:00 +7°C° 1 mm 2 mps 730 mmHg 92%
    16:00 +7°C° 1 mm 2 mps 731 mmHg 93%
    17:00 +7°C° 1 mm 2 mps 731 mmHg 94%
    18:00 +7°C° 0.7 mm 3 mps 731 mmHg 93%
    19:00 +5°C° 0.7 mm 4 mps 732 mmHg 92%
    20:00 +5°C° 0.7 mm 5 mps 733 mmHg 91%
    21:00 +5°C° 0.4 mm 5 mps 733 mmHg 91%
    22:00 +5°C° 0.4 mm 5 mps 734 mmHg 90%
    23:00 +5°C° 0.4 mm 5 mps 735 mmHg 90%

    Tomorrow, 27 April, Friday

    Time Temperature Precipitation Wind Pressure Humidity
    00:00 +4°C° 0 mm 4 mps 735 mmHg 91%
    01:00 +3°C° 0 mm 4 mps 736 mmHg 92%
    02:00 +3°C° 0 mm 3 mps 736 mmHg 93%
    03:00 +2°C° 0 mm 3 mps 736 mmHg 94%
    04:00 +2°C° 0 mm 3 mps 737 mmHg 94%
    05:00 +2°C° 0 mm 3 mps 737 mmHg 94%
    06:00 +3°C° 0 mm 3 mps 738 mmHg 89%
    07:00 +5°C° 0 mm 3 mps 738 mmHg 83%
    08:00 +7°C° 0 mm 3 mps 739 mmHg 77%
    09:00 +8°C° 0.2 mm 3 mps 739 mmHg 71%
    10:00 +8°C° 0.2 mm 4 mps 740 mmHg 65%
    11:00 +11°C° 0.2 mm 4 mps 740 mmHg 58%
    12:00 +11°C° 0.3 mm 4 mps 740 mmHg 56%
    13:00 +11°C° 0.3 mm 4 mps 740 mmHg 54%
    14:00 +12°C° 0.3 mm 4 mps 740 mmHg 52%
    15:00 +11°C° 0.2 mm 3 mps 740 mmHg 55%
    16:00 +11°C° 0.2 mm 3 mps 740 mmHg 58%
    17:00 +11°C° 0.2 mm 3 mps 740 mmHg 61%
    18:00 +9°C° 0 mm 2 mps 741 mmHg 68%
    19:00 +7°C° 0 mm 2 mps 741 mmHg 75%
    20:00 +7°C° 0 mm 1 mps 741 mmHg 82%
    21:00 +5°C° 0 mm 2 mps 741 mmHg 84%
    22:00 +5°C° 0 mm 2 mps 742 mmHg 87%
    23:00 +4°C° 0 mm 2 mps 742 mmHg 89%

    Day after tomorrow, 28 April, Saturday

    Time Temperature Precipitation Wind Pressure Humidity
    00:00 +4°C° 0 mm 2 mps 742 mmHg 91%
    01:00 +3°C° 0 mm 2 mps 742 mmHg 92%
    02:00 +3°C° 0 mm 2 mps 742 mmHg 93%
    03:00 +3°C° 0 mm 2 mps 742 mmHg 94%
    04:00 +3°C° 0 mm 2 mps 743 mmHg 94%
    05:00 +3°C° 0 mm 2 mps 743 mmHg 94%
    06:00 +5°C° 0 mm 2 mps 743 mmHg 87%
    07:00 +7°C° 0 mm 2 mps 743 mmHg 81%
    08:00 +8°C° 0 mm 2 mps 743 mmHg 74%
    09:00 +9°C° 0.4 mm 3 mps 743 mmHg 71%
    10:00 +10°C° 0.4 mm 3 mps 744 mmHg 68%
    11:00 +10°C° 0.4 mm 3 mps 744 mmHg 65%
    12:00 +11°C° 0.6 mm 3 mps 744 mmHg 64%
    13:00 +11°C° 0.6 mm 4 mps 744 mmHg 62%
    14:00 +11°C° 0.6 mm 4 mps 744 mmHg 61%
    15:00 +11°C° 0.1 mm 4 mps 744 mmHg 62%
    16:00 +11°C° 0.1 mm 3 mps 744 mmHg 63%
    17:00 +10°C° 0.1 mm 3 mps 744 mmHg 63%
    18:00 +9°C° 0 mm 3 mps 744 mmHg 70%
    19:00 +7°C° 0 mm 2 mps 744 mmHg 76%
    20:00 +6°C° 0 mm 2 mps 745 mmHg 82%
    21:00 +5°C° 0 mm 2 mps 745 mmHg 83%
    22:00 +5°C° 0 mm 2 mps 745 mmHg 85%
    23:00 +4°C° 0 mm 2 mps 745 mmHg 86%

    29 April, Sunday

    Time Temperature Precipitation Wind Pressure Humidity
    00:00 +4°C° 0 mm 2 mps 746 mmHg 87%
    01:00 +4°C° 0 mm 2 mps 746 mmHg 88%
    02:00 +3°C° 0 mm 2 mps 746 mmHg 89%
    03:00 +4°C° 0 mm 2 mps 746 mmHg 89%
    04:00 +4°C° 0 mm 2 mps 746 mmHg 88%
    05:00 +4°C° 0 mm 2 mps 746 mmHg 88%
    06:00 +5°C° 0 mm 2 mps 746 mmHg 82%
    07:00 +7°C° 0 mm 2 mps 745 mmHg 77%
    08:00 +9°C° 0 mm 2 mps 745 mmHg 72%
    09:00 +9°C° 0.2 mm 3 mps 745 mmHg 73%
    10:00 +10°C° 0.2 mm 3 mps 745 mmHg 75%
    11:00 +10°C° 0.2 mm 3 mps 744 mmHg 76%
    12:00 +9°C° 0.4 mm 3 mps 744 mmHg 80%
    13:00 +9°C° 0.4 mm 3 mps 744 mmHg 83%
    14:00 +9°C° 0.4 mm 3 mps 743 mmHg 87%
    15:00 +9°C° 0.2 mm 3 mps 743 mmHg 88%
    16:00 +9°C° 0.2 mm 2 mps 743 mmHg 89%
    17:00 +9°C° 0.2 mm 2 mps 743 mmHg 90%
    18:00 +8°C° 0 mm 2 mps 743 mmHg 92%
    19:00 +8°C° 0 mm 2 mps 743 mmHg 94%
    20:00 +7°C° 0 mm 2 mps 743 mmHg 96%
    21:00 +7°C° 0 mm 2 mps 743 mmHg 96%
    22:00 +7°C° 0 mm 2 mps 743 mmHg 96%
    23:00 +7°C° 0 mm 2 mps 743 mmHg 96%

    30 April, Monday

    Time Temperature Precipitation Wind Pressure Humidity
    00:00 +6°C° 0 mm 2 mps 743 mmHg 96%
    01:00 +6°C° 0 mm 2 mps 743 mmHg 96%
    02:00 +6°C° 0 mm 2 mps 744 mmHg 96%
    03:00 +5°C° 0 mm 2 mps 744 mmHg 95%
    04:00 +4°C° 0 mm 3 mps 744 mmHg 95%
    05:00 +4°C° 0 mm 3 mps 744 mmHg 95%
    06:00 +5°C° 0 mm 3 mps 744 mmHg 88%
    07:00 +7°C° 0 mm 4 mps 744 mmHg 80%
    08:00 +8°C° 0 mm 4 mps 744 mmHg 73%
    09:00 +9°C° 0 mm 5 mps 744 mmHg 67%
    10:00 +10°C° 0 mm 5 mps 745 mmHg 62%
    11:00 +12°C° 0 mm 5 mps 745 mmHg 57%
    12:00 +13°C° 0 mm 5 mps 745 mmHg 54%
    13:00 +14°C° 0 mm 5 mps 745 mmHg 51%
    14:00 +15°C° 0 mm 4 mps 745 mmHg 48%
    15:00 +14°C° 0 mm 4 mps 745 mmHg 50%
    16:00 +14°C° 0 mm 3 mps 745 mmHg 51%
    17:00 +14°C° 0 mm 3 mps 745 mmHg 53%
    18:00 +13°C° 0 mm 2 mps 746 mmHg 61%
    19:00 +10°C° 0 mm 2 mps 746 mmHg 69%
    20:00 +9°C° 0 mm 1 mps 746 mmHg 77%
    21:00 +8°C° 0 mm 1 mps 746 mmHg 80%
    22:00 +7°C° 0 mm 1 mps 747 mmHg 83%
    23:00 +6°C° 0 mm 1 mps 747 mmHg 86%

    1 May, Tuesday

    Time Temperature Precipitation Wind Pressure Humidity
    00:00 +6°C° 0 mm 1 mps 747 mmHg 86%
    01:00 +6°C° 0 mm 1 mps 747 mmHg 87%
    02:00 +5°C° 0 mm 1 mps 747 mmHg 88%
    03:00 +5°C° 0 mm 2 mps 747 mmHg 86%
    04:00 +5°C° 0 mm 2 mps 747 mmHg 84%
    05:00 +6°C° 0 mm 2 mps 747 mmHg 82%
    06:00 +5°C° 0 mm 3 mps 746 mmHg 80%
    07:00 +7°C° 0 mm 3 mps 746 mmHg 78%
    08:00 +7°C° 0 mm 4 mps 746 mmHg 76%
    09:00 +10°C° 0 mm 4 mps 746 mmHg 71%
    10:00 +12°C° 0 mm 4 mps 745 mmHg 66%
    11:00 +14°C° 0 mm 5 mps 745 mmHg 60%
    12:00 +15°C° 0 mm 4 mps 745 mmHg 59%
    13:00 +18°C° 0 mm 4 mps 744 mmHg 59%
    14:00 +20°C° 0 mm 4 mps 744 mmHg 58%
    15:00 +19°C° 0.2 mm 4 mps 744 mmHg 64%
    16:00 +18°C° 0.2 mm 4 mps 744 mmHg 71%
    17:00 +17°C° 0.2 mm 4 mps 744 mmHg 77%
    18:00 +15°C° 0 mm 4 mps 744 mmHg 81%
    19:00 +14°C° 0 mm 4 mps 745 mmHg 85%
    20:00 +13°C° 0 mm 4 mps 745 mmHg 90%
    21:00 +12°C° 0 mm 3 mps 746 mmHg 91%
    22:00 +11°C° 0 mm 3 mps 746 mmHg 93%
    23:00 +10°C° 0 mm 3 mps 746 mmHg 95%
    Show more